Location: Baia Mare
(47.6567°N, 23.5850°E)
Time: 16:50:40
(UTC+03:00)

ISS - Pass Details

Date: 03 November 2018
Orbit: 403 x 408 km, 51.6° (Epoch: 16 October)

Event Time Altitude Azimuth Distance (km) Brightness Sun altitude
Exits shadow 06:35:51 - 287° (WNW) 1,553 -1.6 -6.7°
Reaches altitude 10° 06:36:05 10° 289° (WNW) 1,463 -1.7 -6.6°
Maximum altitude 06:39:12 39° 360° (N) 628 -3.0 -6.1°
Drops below altitude 10° 06:42:19 10° 71° (ENE) 1,466 0.0 -5.6°
Sets 06:44:29 0° 79° (E) 2,327 1.3 -5.3°
